483  
ASUS41 KGYX 200310  
RWRGYX  
WEATHER ROUNDUP FOR MAINE AND NEW HAMPSHIRE  
NATIONAL WEATHER SERVICE GRAY ME  
1100 PM EDT TUE JUN 19 2018  
 
MEZ002-005-006-010-012-015-018-020-021-024-026-027-029-200400-  
MAINE  
 
CITY SKY/WX TMP DP RH WIND PRES REMARKS
 
PORTLAND FAIR 63 50 62 NW5 29.86R  
SANFORD FAIR 55 51 86 CALM 29.88R  
BAR HARBOR FAIR 63 45 51 NW3 29.81R  
WISCASSET FAIR 59 50 72 CALM 29.86R  
ROCKLAND FAIR 60 49 66 NW3 29.83R  
FRYEBURG FAIR 54 52 93 CALM 29.88R  
LEWISTONAUBURN FAIR 63 46 54 NW3 29.87R  
AUGUSTA FAIR 63 44 50 W5 29.85R  
WATERVILLE FAIR 62 45 53 W5 29.82R  
BANGOR FAIR 64 44 48 NW8 29.82R  
GREENVILLE N/A 58 41 53 NW10 29.83R  
MILLINOCKET FAIR 60 45 57 NW5 29.81R  
HOULTON FAIR 52 46 80 CALM 29.75S  
PRESQUE ISLE FAIR 54 44 69 W6 29.75S  
FRENCHVILLE FAIR 58 42 55 W9 29.74S  
CARIBOU FAIR 56 43 61 W3 29.73S  

 
 
NHZ002-005-008-009-011-012-014-200400-  
NEW HAMPSHIRE  
 
CITY SKY/WX TMP DP RH WIND PRES REMARKS
 
PORTSMOUTH CLEAR 62 49 60 NW9 29.86R  
ROCHESTER FAIR 61 50 67 NW6 29.87R  
NASHUA FAIR 66 50 56 NW6 29.89R  
MANCHESTER FAIR 69 48 47 NW6 29.87R  
CONCORD FAIR 63 49 60 W5 29.89R  
LACONIA FAIR 63 50 62 W5 29.90R  
PLYMOUTH FAIR 56 50 80 CALM 29.90R  
BERLIN FAIR 47 46 97 CALM 29.91S  
WHITEFIELD FAIR 53 50 89 CALM 29.93R  
JAFFREY FAIR 57 52 83 CALM 29.93R  
KEENE FAIR 55 49 80 CALM 29.92R  
LEBANON FAIR 54 48 80 CALM 29.91S  
MT WASHINGTON PTCLDY 39 32 75 NW30G36 N/A  

 
 
VTZ005-007-008-200400-  
VERMONT  
 
CITY SKY/WX TMP DP RH WIND PRES REMARKS
 
ST JOHNSBURY N/A 56 53 90 MISG 29.91R  
MONTPELIER FAIR 53 48 83 S3 29.97R  
BURLINGTON FAIR 60 52 74 SE3 29.91S  

 
 
MAZ007-012-024-CTZ003-RIZ002-NYZ038-NYZ072-200400-  
SOUTHERN NEW ENGLAND AND NY  
 
CITY SKY/WX TMP DP RH WIND PRES REMARKS
 
BOSTON FAIR 72 47 40 N10 29.87R  
WORCESTER FAIR 67 45 45 NW9 29.91R  
NANTUCKET FOG 58 57 97 CALM 29.86R VSB 1  
PROVIDENCE FAIR 71 48 43 N8 29.87R  
HARTFORD FAIR 66 51 58 NW3 29.88R  
ALBANY MOCLDY 69 54 58 N8 29.91R  
NEW YORK CITY FAIR 79 52 38 NE5 29.86S  

 
 
ANZ081-ANZ082-ANZ150-NHZ014-MEZ023>029-200400-  
COASTAL MARINE OBSERVATIONS  
 
STATION/POSITION TIME TEMP WIND PRES WAVE
 
AIR SEA DIR/SP/G HT/PER  
(UTC) (F) (DEG/KT/KT) (MB) (FT/S)  
MOUNT DESERT ROC 0300 63 280/ 15/ 15 1009.6R  
MATINICUS ROCK 0200 63 310/ 15/ 15 1009.2R  
ISLE OF SHOALS 0200 70 310/ 12/ 12 1010.3R  
JEFFREYS LEDGE 0236 58 N/A 2/ 7  

 
   
............KEY...........
 
 
WCI - WIND CHILL  
TC - TEMPERATURE IN CELSIUS  
VSB - VISIBILITY
IN MILES  
HX - HEAT INDEX  
FAIR- INDICATES FEW OR NO CLOUDS BELOW 12,000 FT, WITH NO  
SIGNIFICANT WEATHER AND/OR S TO VISIBILITY.  
 
 
 
CLICK HERE TO GO TO PREVIOUS BULLETINS.

The Nexlab ME Page
The Nexlab NH Page Main Text Page